Time,TemperatureF,DewpointF,PressureIn,WindDirection,WindDirectionDegrees,WindSpeedMPH,WindSpeedGustMPH,Humidity,HourlyPrecipIn,Conditions,Clouds,dailyrainin,SoftwareType,DateUTC
2013-01-10 00:00:00,46.3,34.0,30.21,SSW,199,4.0,4.0,62,0.00,,,0.00,Wunderground v.1.15,2013-01-10 05:00:00,
2013-01-10 00:10:00,45.5,33.6,30.21,South,182,2.0,3.0,63,0.00,,,0.00,Wunderground v.1.15,2013-01-10 05:10:00,
2013-01-10 00:20:00,45.0,33.2,30.22,SSW,198,3.0,5.0,63,0.00,,,0.00,Wunderground v.1.15,2013-01-10 05:20:00,
2013-01-10 00:25:00,45.3,33.0,30.22,SE,142,4.0,6.0,62,0.00,,,0.00,Wunderground v.1.15,2013-01-10 05:25:00,
2013-01-10 00:30:00,45.6,32.9,30.22,South,176,5.0,5.0,61,0.00,,,0.00,Wunderground v.1.15,2013-01-10 05:30:00,
2013-01-10 00:40:00,45.1,32.4,30.23,South,181,4.0,4.0,61,0.00,,,0.00,Wunderground v.1.15,2013-01-10 05:40:00,
2013-01-10 00:50:00,45.4,31.9,30.22,South,182,4.0,8.0,59,0.00,,,0.00,Wunderground v.1.15,2013-01-10 05:50:00,
2013-01-10 01:00:00,46.1,31.7,30.23,SSW,198,8.0,13.0,57,0.00,,,0.00,Wunderground v.1.15,2013-01-10 06:00:00,
2013-01-10 01:10:00,46.9,31.1,30.24,SSW,207,7.0,7.0,54,0.00,,,0.00,Wunderground v.1.15,2013-01-10 06:10:00,
2013-01-10 01:20:00,46.7,30.5,30.24,South,184,9.0,9.0,53,0.00,,,0.00,Wunderground v.1.15,2013-01-10 06:20:00,
2013-01-10 01:30:00,46.1,30.4,30.24,SSW,209,8.0,8.0,54,0.00,,,0.00,Wunderground v.1.15,2013-01-10 06:30:00,
2013-01-10 01:40:00,46.1,29.9,30.25,SW,223,5.0,6.0,53,0.00,,,0.00,Wunderground v.1.15,2013-01-10 06:40:00,
2013-01-10 01:50:00,46.0,29.8,30.26,SSW,207,7.0,7.0,53,0.00,,,0.00,Wunderground v.1.15,2013-01-10 06:50:00,
2013-01-10 02:00:00,45.8,29.6,30.26,South,184,6.0,6.0,53,0.00,,,0.00,Wunderground v.1.15,2013-01-10 07:00:00,
2013-01-10 02:10:00,45.5,29.3,30.26,SW,216,7.0,11.0,53,0.00,,,0.00,Wunderground v.1.15,2013-01-10 07:10:00,
2013-01-10 02:20:00,45.6,29.4,30.26,East,80,6.0,6.0,53,0.00,,,0.00,Wunderground v.1.15,2013-01-10 07:20:00,
2013-01-10 02:30:00,45.3,28.7,30.27,South,186,6.0,9.0,52,0.00,,,0.00,Wunderground v.1.15,2013-01-10 07:30:00,
2013-01-10 02:40:00,44.9,27.8,30.28,SSE,149,5.0,5.0,51,0.00,,,0.00,Wunderground v.1.15,2013-01-10 07:40:00,
2013-01-10 02:50:00,44.7,28.1,30.28,ENE,63,5.0,5.0,52,0.00,,,0.00,Wunderground v.1.15,2013-01-10 07:50:00,
2013-01-10 03:00:00,44.5,27.5,30.29,ENE,74,3.0,4.0,51,0.00,,,0.00,Wunderground v.1.15,2013-01-10 08:00:00,
2013-01-10 03:10:00,44.2,27.2,30.30,NE,48,3.0,9.0,51,0.00,,,0.00,Wunderground v.1.15,2013-01-10 08:10:00,
2013-01-10 03:20:00,44.0,27.0,30.30,SW,235,4.0,4.0,51,0.00,,,0.00,Wunderground v.1.15,2013-01-10 08:20:00,
2013-01-10 03:30:00,44.4,27.4,30.31,South,171,4.0,6.0,51,0.00,,,0.00,Wunderground v.1.15,2013-01-10 08:30:00,
2013-01-10 03:40:00,44.1,27.1,30.31,South,184,4.0,4.0,51,0.00,,,0.00,Wunderground v.1.15,2013-01-10 08:40:00,
2013-01-10 03:50:00,44.6,27.6,30.31,South,171,6.0,6.0,51,0.00,,,0.00,Wunderground v.1.15,2013-01-10 08:50:00,
2013-01-10 04:00:00,44.5,27.5,30.31,SSW,200,6.0,8.0,51,0.00,,,0.00,Wunderground v.1.15,2013-01-10 09:00:00,
2013-01-10 04:10:00,44.1,27.6,30.32,SSE,164,4.0,5.0,52,0.00,,,0.00,Wunderground v.1.15,2013-01-10 09:10:00,
2013-01-10 04:20:00,43.8,27.3,30.32,SSE,159,5.0,6.0,52,0.00,,,0.00,Wunderground v.1.15,2013-01-10 09:20:00,
2013-01-10 04:30:00,43.7,28.1,30.32,SSW,206,4.0,4.0,54,0.00,,,0.00,Wunderground v.1.15,2013-01-10 09:30:00,
2013-01-10 04:40:00,42.8,27.3,30.33,South,182,2.0,2.0,54,0.00,,,0.00,Wunderground v.1.15,2013-01-10 09:40:00,
2013-01-10 04:50:00,42.1,27.5,30.34,SSW,206,2.0,2.0,56,0.00,,,0.00,Wunderground v.1.15,2013-01-10 09:50:00,
2013-01-10 05:00:00,41.9,28.2,30.34,SSW,203,2.0,5.0,58,0.00,,,0.00,Wunderground v.1.15,2013-01-10 10:00:00,
2013-01-10 05:10:00,41.9,28.2,30.34,South,178,3.0,8.0,58,0.00,,,0.00,Wunderground v.1.15,2013-01-10 10:10:00,
2013-01-10 05:20:00,42.7,28.1,30.34,SSE,155,6.0,6.0,56,0.00,,,0.00,Wunderground v.1.15,2013-01-10 10:20:00,
2013-01-10 05:30:00,42.5,27.9,30.34,SSE,160,4.0,4.0,56,0.00,,,0.00,Wunderground v.1.15,2013-01-10 10:30:00,
2013-01-10 05:40:00,41.6,27.5,30.36,South,174,2.0,2.0,57,0.00,,,0.00,Wunderground v.1.15,2013-01-10 10:40:00,
2013-01-10 05:50:00,39.8,27.0,30.36,SW,217,0.0,1.0,60,0.00,,,0.00,Wunderground v.1.15,2013-01-10 10:50:00,
2013-01-10 06:00:00,40.4,27.6,30.37,South,189,2.0,6.0,60,0.00,,,0.00,Wunderground v.1.15,2013-01-10 11:00:00,
2013-01-10 06:10:00,39.7,27.3,30.36,SW,220,2.0,4.0,61,0.00,,,0.00,Wunderground v.1.15,2013-01-10 11:10:00,
2013-01-10 06:20:00,41.8,28.1,30.36,SW,216,7.0,7.0,58,0.00,,,0.00,Wunderground v.1.15,2013-01-10 11:20:00,
2013-01-10 06:30:00,42.1,27.5,30.37,SSE,161,6.0,11.0,56,0.00,,,0.00,Wunderground v.1.15,2013-01-10 11:30:00,
2013-01-10 06:40:00,41.6,27.5,30.38,SSE,158,2.0,2.0,57,0.00,,,0.00,Wunderground v.1.15,2013-01-10 11:40:00,
2013-01-10 06:50:00,41.4,27.7,30.38,South,180,1.0,3.0,58,0.00,,,0.00,Wunderground v.1.15,2013-01-10 11:50:00,
2013-01-10 07:00:00,41.4,27.3,30.39,ESE,113,2.0,2.0,57,0.00,,,0.00,Wunderground v.1.15,2013-01-10 12:00:00,
2013-01-10 07:10:00,41.4,27.7,30.40,SW,234,2.0,2.0,58,0.00,,,0.00,Wunderground v.1.15,2013-01-10 12:10:00,
2013-01-10 07:20:00,40.5,26.9,30.41,ENE,76,1.0,1.0,58,0.00,,,0.00,Wunderground v.1.15,2013-01-10 12:20:00,
2013-01-10 07:30:00,39.9,27.1,30.42,South,188,1.0,5.0,60,0.00,,,0.00,Wunderground v.1.15,2013-01-10 12:30:00,
2013-01-10 07:40:00,41.1,27.9,30.42,SSW,208,3.0,3.0,59,0.00,,,0.00,Wunderground v.1.15,2013-01-10 12:40:00,
2013-01-10 07:50:00,40.6,27.4,30.43,SW,216,1.0,1.0,59,0.00,,,0.00,Wunderground v.1.15,2013-01-10 12:50:00,
2013-01-10 08:00:00,40.3,27.1,30.44,South,188,1.0,3.0,59,0.00,,,0.00,Wunderground v.1.15,2013-01-10 13:00:00,
2013-01-10 08:10:00,41.0,27.8,30.45,South,190,2.0,2.0,59,0.00,,,0.00,Wunderground v.1.15,2013-01-10 13:10:00,
2013-01-10 08:20:00,42.1,27.9,30.45,SSE,159,3.0,3.0,57,0.00,,,0.00,Wunderground v.1.15,2013-01-10 13:20:00,
2013-01-10 08:30:00,42.9,27.8,30.45,SSW,198,4.0,4.0,55,0.00,,,0.00,Wunderground v.1.15,2013-01-10 13:30:00,
2013-01-10 08:40:00,43.2,28.1,30.46,SW,219,2.0,2.0,55,0.00,,,0.00,Wunderground v.1.15,2013-01-10 13:40:00,
2013-01-10 08:50:00,43.2,27.7,30.46,East,83,2.0,3.0,54,0.00,,,0.00,Wunderground v.1.15,2013-01-10 13:50:00,
2013-01-10 09:00:00,43.3,27.3,30.47,North,11,2.0,6.0,53,0.00,,,0.00,Wunderground v.1.15,2013-01-10 14:00:00,
2013-01-10 09:10:00,43.9,27.9,30.47,SE,138,2.0,2.0,53,0.00,,,0.00,Wunderground v.1.15,2013-01-10 14:10:00,
2013-01-10 09:20:00,43.8,27.3,30.47,SSE,148,3.0,3.0,52,0.00,,,0.00,Wunderground v.1.15,2013-01-10 14:20:00,
2013-01-10 09:30:00,44.2,27.2,30.48,ENE,70,2.0,5.0,51,0.00,,,0.00,Wunderground v.1.15,2013-01-10 14:30:00,
2013-01-10 09:40:00,44.4,26.4,30.48,North,351,4.0,9.0,49,0.00,,,0.00,Wunderground v.1.15,2013-01-10 14:40:00,
2013-01-10 09:50:00,44.2,25.7,30.48,North,7,4.0,6.0,48,0.00,,,0.00,Wunderground v.1.15,2013-01-10 14:50:00,
2013-01-10 10:00:00,44.7,25.7,30.49,North,5,4.0,5.0,47,0.00,,,0.00,Wunderground v.1.15,2013-01-10 15:00:00,
2013-01-10 10:10:00,45.2,25.6,30.49,ENE,70,4.0,4.0,46,0.00,,,0.00,Wunderground v.1.15,2013-01-10 15:10:00,
2013-01-10 10:20:00,45.0,25.4,30.49,NNE,25,5.0,5.0,46,0.00,,,0.00,Wunderground v.1.15,2013-01-10 15:20:00,
2013-01-10 10:30:00,45.2,25.1,30.48,South,178,4.0,4.0,45,0.00,,,0.00,Wunderground v.1.15,2013-01-10 15:30:00,
2013-01-10 10:40:00,45.2,25.1,30.48,North,11,5.0,5.0,45,0.00,,,0.00,Wunderground v.1.15,2013-01-10 15:40:00,
2013-01-10 10:50:00,45.3,25.2,30.49,SSW,202,4.0,4.0,45,0.00,,,0.00,Wunderground v.1.15,2013-01-10 15:50:00,
2013-01-10 11:00:00,45.2,24.6,30.47,North,6,5.0,5.0,44,0.00,,,0.00,Wunderground v.1.15,2013-01-10 16:00:00,
2013-01-10 11:10:00,45.2,25.6,30.46,NE,54,4.0,8.0,46,0.00,,,0.00,Wunderground v.1.15,2013-01-10 16:10:00,
2013-01-10 11:20:00,45.7,25.5,30.47,South,169,4.0,4.0,45,0.00,,,0.00,Wunderground v.1.15,2013-01-10 16:20:00,
2013-01-10 11:30:00,46.0,24.7,30.47,WSW,255,4.0,4.0,43,0.00,,,0.00,Wunderground v.1.15,2013-01-10 16:30:00,
2013-01-10 11:40:00,45.5,24.8,30.45,North,5,5.0,7.0,44,0.00,,,0.00,Wunderground v.1.15,2013-01-10 16:40:00,
2013-01-10 11:50:00,45.8,24.5,30.44,NNW,338,6.0,6.0,43,0.00,,,0.00,Wunderground v.1.15,2013-01-10 16:50:00,
2013-01-10 12:00:00,45.7,24.5,30.44,WSW,257,5.0,5.0,43,0.00,,,0.00,Wunderground v.1.15,2013-01-10 17:00:00,
2013-01-10 12:10:00,46.7,24.8,30.44,WSW,240,5.0,5.0,42,0.00,,,0.00,Wunderground v.1.15,2013-01-10 17:10:00,
2013-01-10 12:20:00,46.4,24.5,30.44,NNE,33,5.0,5.0,42,0.00,,,0.00,Wunderground v.1.15,2013-01-10 17:20:00,
2013-01-10 12:30:00,46.4,24.5,30.43,North,7,4.0,7.0,42,0.00,,,0.00,Wunderground v.1.15,2013-01-10 17:30:00,
2013-01-10 12:40:00,47.3,25.9,30.43,SW,227,3.0,3.0,43,0.00,,,0.00,Wunderground v.1.15,2013-01-10 17:40:00,
2013-01-10 12:50:00,47.0,25.1,30.44,NNE,24,3.0,3.0,42,0.00,,,0.00,Wunderground v.1.15,2013-01-10 17:50:00,
2013-01-10 13:00:00,47.3,24.8,30.44,NE,46,3.0,4.0,41,0.00,,,0.00,Wunderground v.1.15,2013-01-10 18:00:00,
2013-01-10 13:15:00,47.4,24.9,30.44,ENE,70,2.0,4.0,41,0.00,,,0.00,Wunderground v.1.15,2013-01-10 18:15:00,
2013-01-10 13:20:00,47.8,25.2,30.44,SW,217,2.0,2.0,41,0.00,,,0.00,Wunderground v.1.15,2013-01-10 18:20:00,
2013-01-10 13:30:00,48.6,24.7,30.44,SSW,196,4.0,4.0,39,0.00,,,0.00,Wunderground v.1.15,2013-01-10 18:30:00,
2013-01-10 13:40:00,48.3,24.5,30.44,SE,134,3.0,5.0,39,0.00,,,0.00,Wunderground v.1.15,2013-01-10 18:40:00,
2013-01-10 13:50:00,49.0,25.7,30.45,SSW,195,4.0,8.0,40,0.00,,,0.00,Wunderground v.1.15,2013-01-10 18:50:00,
2013-01-10 14:00:00,48.3,25.1,30.44,WNW,292,4.0,5.0,40,0.00,,,0.00,Wunderground v.1.15,2013-01-10 19:00:00,
2013-01-10 14:10:00,49.0,24.5,30.44,SW,223,4.0,4.0,38,0.00,,,0.00,Wunderground v.1.15,2013-01-10 19:10:00,
2013-01-10 14:20:00,49.1,25.2,30.45,SW,233,3.0,3.0,39,0.00,,,0.00,Wunderground v.1.15,2013-01-10 19:20:00,
2013-01-10 14:30:00,48.7,24.2,30.45,NE,53,2.0,7.0,38,0.00,,,0.00,Wunderground v.1.15,2013-01-10 19:30:00,
2013-01-10 14:40:00,48.6,24.7,30.45,NNW,330,3.0,3.0,39,0.00,,,0.00,Wunderground v.1.15,2013-01-10 19:40:00,
2013-01-10 14:50:00,48.8,24.9,30.46,SW,219,4.0,7.0,39,0.00,,,0.00,Wunderground v.1.15,2013-01-10 19:50:00,
2013-01-10 15:00:00,48.8,24.3,30.46,SSW,196,3.0,3.0,38,0.00,,,0.00,Wunderground v.1.15,2013-01-10 20:00:00,
2013-01-10 15:10:00,49.0,24.5,30.46,SW,227,2.0,2.0,38,0.00,,,0.00,Wunderground v.1.15,2013-01-10 20:10:00,
2013-01-10 15:20:00,48.7,24.8,30.47,South,181,1.0,1.0,39,0.00,,,0.00,Wunderground v.1.15,2013-01-10 20:20:00,
2013-01-10 15:30:00,48.2,24.4,30.47,WSW,242,2.0,2.0,39,0.00,,,0.00,Wunderground v.1.15,2013-01-10 20:30:00,
2013-01-10 15:40:00,48.5,24.6,30.48,WNW,289,1.0,4.0,39,0.00,,,0.00,Wunderground v.1.15,2013-01-10 20:40:00,
2013-01-10 15:50:00,48.0,24.8,30.48,SSE,163,2.0,2.0,40,0.00,,,0.00,Wunderground v.1.15,2013-01-10 20:50:00,
2013-01-10 16:00:00,48.0,24.8,30.48,SSW,203,2.0,2.0,40,0.00,,,0.00,Wunderground v.1.15,2013-01-10 21:00:00,
2013-01-10 16:10:00,47.6,25.0,30.48,SE,134,1.0,1.0,41,0.00,,,0.00,Wunderground v.1.15,2013-01-10 21:10:00,
2013-01-10 16:20:00,46.9,25.0,30.48,SE,126,1.0,1.0,42,0.00,,,0.00,Wunderground v.1.15,2013-01-10 21:20:00,
2013-01-10 16:30:00,46.3,24.4,30.49,North,8,1.0,7.0,42,0.00,,,0.00,Wunderground v.1.15,2013-01-10 21:30:00,
2013-01-10 16:40:00,45.9,25.2,30.49,WNW,294,1.0,1.0,44,0.00,,,0.00,Wunderground v.1.15,2013-01-10 21:40:00,
2013-01-10 16:50:00,45.4,24.7,30.49,North,1,0.0,0.0,44,0.00,,,0.00,Wunderground v.1.15,2013-01-10 21:50:00,
2013-01-10 17:00:00,43.9,25.5,30.49,SSW,203,1.0,1.0,48,0.00,,,0.00,Wunderground v.1.15,2013-01-10 22:00:00,
2013-01-10 17:10:00,42.9,26.0,30.50,SW,234,1.0,1.0,51,0.00,,,0.00,Wunderground v.1.15,2013-01-10 22:10:00,
2013-01-10 17:20:00,42.4,26.0,30.50,South,182,1.0,1.0,52,0.00,,,0.00,Wunderground v.1.15,2013-01-10 22:20:00,
2013-01-10 17:30:00,41.9,26.4,30.50,WSW,244,1.0,1.0,54,0.00,,,0.00,Wunderground v.1.15,2013-01-10 22:30:00,
2013-01-10 17:45:00,40.7,26.2,30.50,WSW,244,0.0,1.0,56,0.00,,,0.00,Wunderground v.1.15,2013-01-10 22:45:00,
2013-01-10 17:50:00,40.2,26.2,30.50,SW,226,0.0,1.0,57,0.00,,,0.00,Wunderground v.1.15,2013-01-10 22:50:00,
2013-01-10 18:00:00,39.7,26.9,30.50,SW,234,0.0,0.0,60,0.00,,,0.00,Wunderground v.1.15,2013-01-10 23:00:00,
2013-01-10 18:15:00,39.1,26.8,30.51,WSW,239,0.0,0.0,61,0.00,,,0.00,Wunderground v.1.15,2013-01-10 23:15:00,
2013-01-10 18:20:00,38.8,26.9,30.50,WSW,240,0.0,0.0,62,0.00,,,0.00,Wunderground v.1.15,2013-01-10 23:20:00,
2013-01-10 18:30:00,38.3,26.8,30.50,WNW,284,0.0,2.0,63,0.00,,,0.00,Wunderground v.1.15,2013-01-10 23:30:00,
2013-01-10 18:40:00,37.6,26.5,30.51,West,269,0.0,0.0,64,0.00,,,0.00,Wunderground v.1.15,2013-01-10 23:40:00,
2013-01-10 18:50:00,37.0,26.7,30.51,West,281,0.0,0.0,66,0.00,,,0.00,Wunderground v.1.15,2013-01-10 23:50:00,
2013-01-10 19:00:00,36.8,26.9,30.52,WNW,283,0.0,1.0,67,0.00,,,0.00,Wunderground v.1.15,2013-01-11 00:00:00,
2013-01-10 19:10:00,36.2,26.6,30.52,North,1,0.0,0.0,68,0.00,,,0.00,Wunderground v.1.15,2013-01-11 00:10:00,
2013-01-10 19:20:00,35.7,25.8,30.53,North,1,0.0,0.0,67,0.00,,,0.00,Wunderground v.1.15,2013-01-11 00:20:00,
2013-01-10 19:30:00,35.5,26.3,30.52,North,356,0.0,1.0,69,0.00,,,0.00,Wunderground v.1.15,2013-01-11 00:30:00,
2013-01-10 19:40:00,35.3,26.5,30.52,North,5,0.0,0.0,70,0.00,,,0.00,Wunderground v.1.15,2013-01-11 00:40:00,
2013-01-10 19:50:00,34.9,26.1,30.53,North,5,0.0,0.0,70,0.00,,,0.00,Wunderground v.1.15,2013-01-11 00:50:00,
2013-01-10 20:00:00,34.5,26.1,30.53,North,5,0.0,0.0,71,0.00,,,0.00,Wunderground v.1.15,2013-01-11 01:00:00,
2013-01-10 20:10:00,34.3,26.2,30.53,North,5,0.0,2.0,72,0.00,,,0.00,Wunderground v.1.15,2013-01-11 01:10:00,
2013-01-10 20:20:00,34.3,26.2,30.54,NNE,20,1.0,1.0,72,0.00,,,0.00,Wunderground v.1.15,2013-01-11 01:20:00,
2013-01-10 20:30:00,34.5,26.7,30.54,North,0,0.0,4.0,73,0.00,,,-99.99,WeatherLink 6.0.2,2013-01-11 01:30:00,
2013-01-10 20:35:00,34.2,26.4,30.54,NW,306,0.0,1.0,73,0.00,,,0.00,Wunderground v.1.15,2013-01-11 01:35:00,
2013-01-10 20:40:00,33.9,26.2,30.54,NW,306,0.0,0.0,73,0.00,,,0.00,Wunderground v.1.15,2013-01-11 01:40:00,
2013-01-10 20:50:00,34.0,25.9,30.54,NE,42,1.0,1.0,72,0.00,,,0.00,Wunderground v.1.15,2013-01-11 01:50:00,
2013-01-10 21:00:00,34.3,25.9,30.53,NE,36,2.0,2.0,71,0.00,,,0.00,Wunderground v.1.15,2013-01-11 02:00:00,
2013-01-10 21:10:00,34.1,26.3,30.53,NE,36,0.0,0.0,73,0.00,,,0.00,Wunderground v.1.15,2013-01-11 02:10:00,
2013-01-10 21:20:00,33.8,26.1,30.53,NNE,33,1.0,1.0,73,0.00,,,0.00,Wunderground v.1.15,2013-01-11 02:20:00,
2013-01-10 21:30:00,33.5,26.1,30.54,SW,217,0.0,2.0,74,0.00,,,0.00,Wunderground v.1.15,2013-01-11 02:30:00,
2013-01-10 21:40:00,33.4,26.3,30.53,WSW,242,1.0,2.0,75,0.00,,,0.00,Wunderground v.1.15,2013-01-11 02:40:00,
2013-01-10 21:50:00,33.1,26.4,30.53,WSW,248,1.0,1.0,76,0.00,,,0.00,Wunderground v.1.15,2013-01-11 02:50:00,
2013-01-10 22:00:00,33.1,25.7,30.54,SSW,213,0.0,0.0,74,0.00,,,0.00,Wunderground v.1.15,2013-01-11 03:00:00,
2013-01-10 22:10:00,33.0,26.6,30.53,SSW,207,0.0,0.0,77,0.00,,,0.00,Wunderground v.1.15,2013-01-11 03:10:00,
2013-01-10 22:20:00,33.2,26.1,30.53,NNW,327,1.0,1.0,75,0.00,,,0.00,Wunderground v.1.15,2013-01-11 03:20:00,
2013-01-10 22:30:00,33.6,26.5,30.53,WSW,240,1.0,1.0,75,0.00,,,0.00,Wunderground v.1.15,2013-01-11 03:30:00,
2013-01-10 22:40:00,33.5,26.4,30.53,WSW,240,0.0,0.0,75,0.00,,,0.00,Wunderground v.1.15,2013-01-11 03:40:00,
2013-01-10 22:50:00,34.2,26.4,30.53,NE,45,1.0,3.0,73,0.00,,,0.00,Wunderground v.1.15,2013-01-11 03:50:00,
2013-01-10 23:00:00,36.0,25.7,30.54,NE,36,3.0,3.0,66,0.00,,,0.00,Wunderground v.1.15,2013-01-11 04:00:00,
2013-01-10 23:10:00,37.0,25.9,30.54,NNE,32,2.0,3.0,64,0.00,,,0.00,Wunderground v.1.15,2013-01-11 04:10:00,
2013-01-10 23:20:00,37.6,25.7,30.53,NE,34,4.0,7.0,62,0.00,,,0.00,Wunderground v.1.15,2013-01-11 04:20:00,
2013-01-10 23:30:00,37.6,25.4,30.53,NE,37,3.0,3.0,61,0.00,,,0.00,Wunderground v.1.15,2013-01-11 04:30:00,
2013-01-10 23:40:00,37.5,25.7,30.53,NE,36,3.0,3.0,62,0.00,,,0.00,Wunderground v.1.15,2013-01-11 04:40:00,
2013-01-10 23:50:00,37.6,25.4,30.54,NNW,347,1.0,2.0,61,0.00,,,0.00,Wunderground v.1.15,2013-01-11 04:50:00,